Tracking 17265 objects as of 3-September-2015
HD Live streaming from Space Station

Track Soyuz TMA-18M
and Space Station

COSMOS 970 DEB

Track COSMOS 970 DEB now!
10-day predictions
COSMOS 970 DEB is classified as:


NORAD ID: 10563
Int'l Code: 1977-121E
Perigee: 879.1 km
Apogee: 1,023.6 km
Inclination: 65.8 °
Period: 103.9 minutes
Semi major axis: 7322 km
RCS: 0.0231 m2 (small)
Launch date: December 21, 1977
Source: Commonwealth of Independent States (former USSR) (CIS)

Note: This is SATELLITE DEBRIS
Your satellite tracking list
Your tracking list is empty





NASA's NSSDC Master Catalog

Two Line Element Set (TLE):
1 10563U 77121E   15245.35475139  .00000406  00000-0  41162-3 0  9994
2 10563  65.8481 223.1297 0098663 137.1635 223.7175 13.85573334890728

Source of the keplerian elements: AFSPC

N2YO: 632